Torna al catalogo

FENGYUN 1C DEB

AttivoLEO
NORAD 36261·DEBRIS·🇨🇳 China

Lanciato May 10, 1999 da Taiyuan Satellite Launch Center

Loading…

Prossimi Passaggi (prossime 24 ore)

TLE

In scadenzaSource: Space-Track

Epoca: Sep 9, 2026, 00:51 UTC

1 36261U 99025DWN 26252.03579929  .00000182  00000-0  27188-3 0  9994
2 36261 101.3557 185.0052 0354290 168.2446 192.7227 13.45676677880689

Traccia FENGYUN 1C DEB in tempo reale con AllMySat

Download on the App Store